Location: Rochester
(43.1610°N, 77.6109°W)
Time: 03:22:04
(UTC-05:00)

BlueWalker 3 - Pass Details

Date: 06 October 2023
Orbit: 489 x 503 km, 53.2° (Epoch: 04 December)

Event Time Altitude Azimuth Distance (km) Brightness Sun altitude
Exits shadow 05:31:34 10° 182° (S) 1,676 4.4 -19.3°
Drops below altitude 10° 05:31:39 10° 181° (S) 1,700 4.5 -19.3°
Sets 05:34:14 0° 164° (SSE) 2,583 5.6 -18.8°
